Location: Seddon's Corner
(50.0622°N, 96.2921°W)
Time: 23:15:34
(UTC-05:00)

ISS - Visible Passes

Search period start: 24 May 2019 00:00
Search period end: 03 June 2019 00:00
Orbit: 408 x 418 km, 51.6° (Epoch: 25 May)

Date Brightness Start Highest point End Pass type
(mag) Time Alt. Az. Time Alt. Az. Time Alt. Az.
24 May -3.7 00:14:36 10° WNW 00:17:57 77° NNE 00:19:34 28° E visible
24 May -1.7 01:51:23 10° W 01:52:22 17° W 01:52:22 17° W visible
24 May -3.5 23:25:05 10° WNW 23:28:26 68° N 23:31:31 12° E visible
25 May -3.1 01:01:49 10° WNW 01:04:20 41° WSW 01:04:20 41° WSW visible
25 May -3.3 22:35:33 10° W 22:38:53 64° N 22:42:13 10° E visible
26 May -3.9 00:12:18 10° WNW 00:15:38 72° SSW 00:16:20 51° SE visible
26 May -3.8 23:22:47 10° WNW 23:26:09 88° NNE 23:28:22 20° ESE visible
27 May -1.9 00:59:40 10° W 01:01:10 20° WSW 01:01:10 20° WSW visible
27 May -3.6 22:33:15 10° WNW 22:36:36 74° N 22:39:57 10° E visible
28 May -3.2 00:10:01 10° W 00:13:10 40° SSW 00:13:13 40° SSW visible
28 May -3.7 23:20:26 10° WNW 23:23:43 57° SSW 23:25:18 27° SE visible
29 May -1.1 00:58:05 10° WSW 00:58:06 10° WSW 00:58:06 10° WSW visible
29 May -3.8 22:30:52 10° WNW 22:34:13 78° SSW 22:37:24 11° ESE visible
30 May -2.1 00:07:57 10° W 00:10:12 20° SW 00:10:12 20° SW visible
30 May -2.7 23:18:08 10° W 23:21:08 30° SSW 23:22:20 23° S visible
31 May -3.2 22:28:28 10° WNW 22:31:41 44° SSW 22:34:28 13° SE visible
01 Jun -1.7 23:16:16 10° W 23:18:21 16° SW 23:19:28 14° SSW visible
02 Jun -2.1 22:26:14 10° W 22:28:58 23° SW 22:31:40 10° SSE visible
